Weather History for Trenton, NJ

Change the Weather History Date:

Friday, June 7, 2013

  Actual Average Record
Temperature  
Mean Temperature 63 °F 68 °F  
Max Temperature 65 °F 79 °F 99 °F (1925)
Min Temperature 60 °F 58 °F 46 °F (1993)
Degree Days  
Heating Degree Days 2 1  
Month to date heating degree days 4 13  
Since 1 June heating degree days 4 13  
Since 1 July heating degree days 4953 5149  
Cooling Degree Days 0 5  
Month to date cooling degree days 36 28  
Year to date cooling degree days 126 85  
Since 1 June cooling degree days 36 28  
Growing Degree Days 12 (Base 50)    
Moisture  
Dew Point 61 °F    
Average Humidity 95    
Maximum Humidity 100    
Minimum Humidity 90    
Precipitation  
Precipitation 3.51 in 0.16 in 3.51 in (2013)
Month to date precipitation 4.26 1.14  
Year to date precipitation 17.08 18.66  
Sea Level Pressure  
Sea Level Pressure 29.75 in    
Wind  
Wind Speed 9 mph (East)    
Max Wind Speed 20 mph    
Max Gust Speed 28 mph    
Visibility 4 miles    
Events Fog , Rain    
T = Trace of Precipitation, MM = Missing Value Source: NWS Daily Summary

Daily Weather History Graph

Daily Weather History Graph

Search for Another Location

Airport:

Trip Planner

Search our weather history database for the weather conditions in past years. The results will help you decide how hot, cold, wet, or windy it might be!

Date:

Astronomy

Jun. 07, 2013 Rise Set
Actual Time 5:29 AM EDT 8:26 PM EDT
Civil Twilight 4:56 AM EDT 8:59 PM EDT
Nautical Twilight 4:15 AM EDT 9:41 PM EDT
Astronomical Twilight 3:27 AM EDT 10:29 PM EDT
Moon 4:50 AM EDT (6/7) 7:38 PM EDT (6/7)
Length of Visible Light 16h 02m
Length of Day
14h 57m
Waning Crescent, 1% of the Moon is Illuminated
Jun 7
Waning Crescent
Jun 8
New
Jun 16
First Quarter
Jun 23
Full
Jun 30
Last Quarter

Hourly Weather History & Observations

Time (EDT) Temp. Dew Point Humidity Pressure Visibility Wind Dir Wind Speed Gust Speed Precip Events Conditions
12:53 AM 61.0 °F 59.0 °F 93% 29.95 in 9.0 mi SE 3.5 mph - 0.01 in Rain Light Rain
1:09 AM 60.8 °F 59.0 °F 94% 29.96 in 10.0 mi SE 8.1 mph - 0.01 in Rain Light Rain
1:30 AM 60.8 °F 59.0 °F 94% 29.95 in 8.0 mi SE 6.9 mph - 0.01 in Rain Light Rain
1:53 AM 61.0 °F 59.0 °F 93% 29.92 in 4.0 mi SE 8.1 mph - 0.07 in Rain Rain
2:01 AM 60.8 °F 59.0 °F 94% 29.94 in 5.0 mi SE 9.2 mph - 0.00 in Rain Light Rain
2:05 AM 60.8 °F 59.0 °F 94% 29.94 in 4.0 mi SE 10.4 mph - 0.01 in Rain Light Rain
2:14 AM 60.8 °F 59.0 °F 94% 29.94 in 4.0 mi SSE 9.2 mph - 0.02 in Rain Rain
2:21 AM 60.8 °F 59.0 °F 94% 29.93 in 3.0 mi SSE 9.2 mph - 0.04 in Rain Rain
2:31 AM 60.8 °F 59.0 °F 94% 29.93 in 2.0 mi SE 8.1 mph - 0.12 in Rain Heavy Rain
2:48 AM 60.8 °F 59.0 °F 94% 29.92 in 6.0 mi SE 6.9 mph - 0.18 in Rain Light Rain
2:53 AM 61.0 °F 59.0 °F 93% 29.90 in 10.0 mi SE 4.6 mph - 0.19 in Rain Light Rain
3:53 AM 61.0 °F 59.0 °F 93% 29.88 in 7.0 mi SE 5.8 mph - 0.05 in Rain Light Rain
4:53 AM 61.0 °F 59.0 °F 93% 29.86 in 7.0 mi SE 9.2 mph - 0.03 in Rain Light Rain
5:53 AM 62.1 °F 60.1 °F 93% 29.85 in 7.0 mi ESE 8.1 mph - 0.09 in Rain Light Rain
6:53 AM 63.0 °F 61.0 °F 93% 29.85 in 6.0 mi ESE 6.9 mph - 0.09 in Rain Light Rain
7:53 AM 63.0 °F 62.1 °F 97% 29.83 in 4.0 mi ESE 5.8 mph - 0.08 in Rain Rain
8:09 AM 64.4 °F 62.6 °F 94% 29.85 in 4.0 mi SE 5.8 mph - 0.02 in Rain Light Rain
8:49 AM 64.4 °F 62.6 °F 94% 29.85 in 2.5 mi ESE 6.9 mph - 0.06 in Rain Light Rain
8:53 AM 64.0 °F 63.0 °F 96% 29.83 in 2.5 mi ESE 8.1 mph - 0.06 in Rain Light Rain
9:07 AM 64.4 °F 62.6 °F 94% 29.84 in 3.0 mi ESE 8.1 mph - 0.01 in Rain Light Rain
9:36 AM 64.4 °F 62.6 °F 94% 29.84 in 5.0 mi SE 5.8 mph - 0.02 in Rain Light Rain
9:53 AM 64.9 °F 63.0 °F 93% 29.82 in 3.0 mi East 8.1 mph - 0.06 in Rain Rain
10:53 AM 64.9 °F 63.0 °F 93% 29.81 in 4.0 mi ESE 9.2 mph - 0.08 in Rain Rain
11:03 AM 64.4 °F 62.6 °F 94% 29.83 in 1.8 mi East 8.1 mph - 0.07 in Rain Heavy Rain
11:13 AM 64.4 °F 62.6 °F 94% 29.83 in 3.0 mi East 6.9 mph - 0.10 in Rain Rain
11:53 AM 64.0 °F 62.1 °F 93% 29.82 in 3.0 mi East 9.2 mph - 0.17 in Rain Rain
12:53 PM 64.0 °F 62.1 °F 93% 29.80 in 5.0 mi East 8.1 mph - 0.13 in Rain Rain
1:53 PM 63.0 °F 61.0 °F 93% 29.78 in 6.0 mi East 9.2 mph - 0.07 in Rain Light Rain
2:53 PM 64.0 °F 62.1 °F 93% 29.74 in 4.0 mi ENE 8.1 mph - 0.11 in Rain Rain
3:30 PM 64.4 °F 62.6 °F 94% 29.74 in 2.0 mi ENE 10.4 mph - 0.12 in Rain Heavy Rain
3:45 PM 64.4 °F 62.6 °F 94% 29.73 in 3.0 mi NE 9.2 mph - 0.19 in Rain Rain
3:53 PM 64.0 °F 62.1 °F 93% 29.70 in 3.0 mi NE 9.2 mph - 0.23 in Rain Heavy Rain
4:00 PM 64.4 °F 62.6 °F 94% 29.72 in 2.5 mi NE 9.2 mph - 0.03 in Rain Heavy Rain
4:17 PM 64.4 °F 62.6 °F 94% 29.72 in 1.2 mi North 8.1 mph - 0.16 in Rain Heavy Rain
4:36 PM 64.4 °F 62.6 °F 94% 29.71 in 0.5 mi NE 10.4 mph 17.3 mph 0.54 in Fog , Rain Heavy Rain
4:53 PM 64.0 °F 62.1 °F 93% 29.67 in 2.5 mi NE 12.7 mph - 0.65 in Rain Light Rain
4:57 PM 64.4 °F 62.6 °F 94% 29.69 in 4.0 mi ENE 11.5 mph - 0.00 in Rain Light Rain
5:00 PM 64.4 °F 62.6 °F 94% 29.69 in 2.0 mi NE 12.7 mph 19.6 mph 0.00 in Rain Light Rain
5:18 PM 64.4 °F 62.6 °F 94% 29.69 in 3.0 mi NNE 12.7 mph 20.7 mph 0.01 in Rain Light Rain
5:26 PM 64.4 °F 62.6 °F 94% 29.69 in 2.0 mi NE 15.0 mph - 0.02 in Rain Light Rain
5:42 PM 64.4 °F 62.6 °F 94% 29.69 in 3.0 mi ENE 16.1 mph 23.0 mph 0.02 in Rain Light Rain
5:49 PM 64.4 °F 62.6 °F 94% 29.69 in 1.8 mi NE 13.8 mph - 0.03 in Rain Light Rain
5:50 PM 64.0 °F 62.1 °F 93% 29.67 in 1.8 mi NE 13.8 mph - 0.03 in Rain Light Rain
5:57 PM 64.4 °F 62.6 °F 94% 29.69 in 2.0 mi NE 10.4 mph - 0.00 in Rain Light Rain
6:12 PM 64.4 °F 60.8 °F 88% 29.69 in 3.0 mi ENE 12.7 mph 21.9 mph 0.01 in Rain Light Rain
6:53 PM 63.0 °F 61.0 °F 93% 29.65 in 8.0 mi NE 11.5 mph 20.7 mph 0.05 in Rain Light Rain
7:14 PM 62.6 °F 60.8 °F 94% 29.67 in 2.0 mi NE 11.5 mph 21.9 mph 0.06 in Rain Rain
7:27 PM 62.6 °F 60.8 °F 94% 29.67 in 1.2 mi NE 11.5 mph 18.4 mph 0.14 in Rain Heavy Rain
7:45 PM 62.6 °F 60.8 °F 94% 29.66 in 2.0 mi NE 12.7 mph 20.7 mph 0.22 in Rain Rain
7:53 PM 62.1 °F 60.1 °F 93% 29.64 in 1.2 mi ENE 12.7 mph 20.7 mph 0.32 in Rain Heavy Rain
8:07 PM 60.8 °F 60.8 °F 100% 29.66 in 2.5 mi NE 11.5 mph - 0.10 in Rain Heavy Rain
8:20 PM 60.8 °F 59.0 °F 94% 29.64 in 3.0 mi ENE 18.4 mph 27.6 mph 0.19 in Rain Rain
8:53 PM 61.0 °F 57.9 °F 90% 29.62 in 7.0 mi ENE 13.8 mph 24.2 mph 0.24 in Rain Light Rain
9:01 PM 60.8 °F 57.2 °F 88% 29.64 in 5.0 mi ENE 16.1 mph 26.5 mph 0.02 in Rain Rain
9:12 PM 60.8 °F 57.2 °F 88% 29.64 in 2.5 mi ENE 13.8 mph 20.7 mph 0.08 in Rain Rain
9:21 PM 60.8 °F 57.2 °F 88% 29.62 in 1.5 mi ENE 16.1 mph 26.5 mph 0.24 in Rain Heavy Rain
9:27 PM 60.8 °F 57.2 °F 88% 29.63 in 3.0 mi ENE 16.1 mph 24.2 mph 0.25 in Rain Light Rain
9:50 PM 60.8 °F 57.2 °F 88% 29.63 in 2.0 mi ENE 16.1 mph 26.5 mph 0.36 in Rain Heavy Rain
9:53 PM 60.1 °F 59.0 °F 96% 29.61 in 2.0 mi ENE 15.0 mph 26.5 mph 0.37 in Rain Heavy Rain
10:20 PM 60.8 °F 59.0 °F 94% 29.62 in 3.0 mi ENE 15.0 mph 21.9 mph 0.03 in Rain Light Rain
10:30 PM 60.8 °F 59.0 °F 94% 29.61 in 2.5 mi ENE 12.7 mph 20.7 mph 0.04 in Rain Light Rain
10:53 PM 61.0 °F 59.0 °F 93% 29.59 in 3.0 mi NE 10.4 mph - 0.06 in Rain Light Rain
11:04 PM 60.8 °F 59.0 °F 94% 29.60 in 3.0 mi NE 11.5 mph - 0.01 in Rain Light Rain
11:12 PM 60.8 °F 59.0 °F 94% 29.60 in 2.0 mi NE 11.5 mph - 0.04 in Rain Rain
11:15 PM 60.8 °F 59.0 °F 94% 29.60 in 1.5 mi ENE 10.4 mph - 0.07 in Rain Heavy Rain
11:31 PM 60.8 °F 59.0 °F 94% 29.59 in 2.0 mi NE 12.7 mph 20.7 mph 0.15 in Rain Heavy Rain
11:48 PM 60.8 °F 59.0 °F 94% 29.59 in 2.5 mi NE 11.5 mph - 0.21 in Rain Rain
11:53 PM 61.0 °F 59.0 °F 93% 29.57 in 2.5 mi NE 8.1 mph - 0.22 in Rain Rain